Taos, NM

2:35 PM MST on January 23, 2017 (GMT -0700)
Taos Municipal

Weather History for KSKX - May, 2014

Change the Weather History Date:

Monday, May 19, 2014

  Actual Average Record
Temperature  
Mean Temperature 62 °F -  
Max Temperature 78 °F 70 °F 84 °F (2006)
Min Temperature 46 °F 36 °F 33 °F (2003)
Degree Days  
Heating Degree Days 3    
Growing Degree Days 12 (Base 50)    
Moisture  
Dew Point 13 °F    
Average Humidity 15    
Maximum Humidity 25    
Minimum Humidity 10    
Precipitation  
Precipitation 0.00 in - - ()
Sea Level Pressure  
Sea Level Pressure 30.06 in    
Wind  
Wind Speed 10 mph (West)    
Max Wind Speed 26 mph    
Max Gust Speed 34 mph    
Visibility 10 miles    
Events      
Averages and records for this station are not official NWS values.
T = Trace of Precipitation, MM = Missing Value Source: NWS Daily Summary

Daily Weather History Graph

Daily Weather History Graph

Search for Another Location

Airport or City:

Trip Planner

Search our weather history database for the weather conditions in past years. The results will help you decide how hot, cold, wet, or windy it might be!

Date:

Astronomy

May. 19, 2014 Rise Set
Actual Time 5:52 AM MDT 8:05 PM MDT
Civil Twilight 5:23 AM MDT 8:35 PM MDT
Nautical Twilight 4:48 AM MDT 9:10 PM MDT
Astronomical Twilight 4:09 AM MDT 9:49 PM MDT
Moon No Moon Rise 10:50 AM MDT (5/19)
Length of Visible Light 15h 11m
Length of Day
14h 13m
Waning Gibbous, 70% of the Moon is Illuminated
May 19
Waning Gibbous
May 21
Last Quarter
May 28
New
Jun 5
First Quarter
Jun 12
Full

Hourly Weather History & Observations

Time (MDT) Temp. Windchill Dew Point Humidity Pressure Visibility Wind Dir Wind Speed Gust Speed Precip Events Conditions
12:15 AM 55.4 °F - 10.4 °F 17% 30.06 in 10.0 mi Calm Calm - N/A   Clear
12:35 AM 57.2 °F - 8.6 °F 14% 30.07 in 10.0 mi SSW 3.5 mph - N/A   Clear
12:55 AM 48.2 °F - 6.8 °F 19% 30.07 in 10.0 mi Calm Calm - N/A   Clear
1:15 AM 53.6 °F - 10.4 °F 18% 30.07 in 10.0 mi WSW 5.8 mph - N/A   Clear
1:35 AM 53.6 °F - 6.8 °F 15% 30.07 in 10.0 mi West 10.4 mph - N/A   Clear
1:55 AM 51.8 °F - 6.8 °F 16% 30.07 in 10.0 mi West 11.5 mph - N/A   Clear
2:15 AM 51.8 °F - 8.6 °F 18% 30.07 in 10.0 mi West 9.2 mph - N/A   Clear
2:35 AM 50.0 °F - 6.8 °F 17% 30.08 in 10.0 mi West 8.1 mph - N/A   Clear
2:55 AM 51.8 °F - 8.6 °F 18% 30.08 in 10.0 mi West 5.8 mph - N/A   Clear
3:15 AM 53.6 °F - 8.6 °F 16% 30.08 in 10.0 mi West 5.8 mph - N/A   Clear
3:35 AM 55.4 °F - 8.6 °F 15% 30.08 in 10.0 mi West 3.5 mph - N/A   Clear
3:55 AM 53.6 °F - 6.8 °F 15% 30.08 in 10.0 mi SSW 4.6 mph - N/A   Clear
4:15 AM 46.4 °F 45.2 °F 6.8 °F 20% 30.09 in 10.0 mi South 3.5 mph - N/A   Clear
4:35 AM 48.2 °F - 10.4 °F 22% 30.09 in 10.0 mi WSW 3.5 mph - N/A   Clear
4:55 AM 53.6 °F - 8.6 °F 16% 30.09 in 10.0 mi WSW 5.8 mph - N/A   Clear
5:15 AM 51.8 °F - 8.6 °F 18% 30.09 in 10.0 mi WSW 9.2 mph - N/A   Clear
5:35 AM 50.0 °F - 8.6 °F 19% 30.09 in 10.0 mi WSW 10.4 mph - N/A   Clear
5:55 AM 48.2 °F - 10.4 °F 22% 30.09 in 10.0 mi WSW 11.5 mph - N/A   Clear
6:15 AM 46.4 °F 40.7 °F 10.4 °F 23% 30.09 in 10.0 mi WSW 12.7 mph - N/A   Clear
6:35 AM 46.4 °F 41.1 °F 12.2 °F 25% 30.10 in 10.0 mi WSW 11.5 mph - N/A   Clear
7:55 AM 57.2 °F - 17.6 °F 21% 30.11 in 10.0 mi SW 10.4 mph - N/A   Clear
8:55 AM 62.6 °F - 17.6 °F 18% 30.11 in 10.0 mi WSW 12.7 mph 18.4 mph N/A   Clear
9:15 AM 62.6 °F - 17.6 °F 18% 30.11 in 10.0 mi WSW 11.5 mph 19.6 mph N/A   Clear
9:35 AM 64.4 °F - 17.6 °F 16% 30.10 in 10.0 mi WSW 10.4 mph 17.3 mph N/A   Clear
9:55 AM 66.2 °F - 17.6 °F 15% 30.10 in 10.0 mi WSW 18.4 mph 23.0 mph N/A   Clear
10:15 AM 68.0 °F - 15.8 °F 13% 30.09 in 10.0 mi WSW 15.0 mph 28.8 mph N/A   Clear
10:35 AM 69.8 °F - 15.8 °F 13% 30.09 in 10.0 mi West 15.0 mph 21.9 mph N/A   Clear
10:55 AM 69.8 °F - 15.8 °F 13% 30.08 in 10.0 mi WSW 17.3 mph - N/A   Clear
11:15 AM 71.6 °F - 15.8 °F 12% 30.08 in 10.0 mi WSW 12.7 mph 29.9 mph N/A   Clear
11:35 AM 71.6 °F - 15.8 °F 12% 30.07 in 10.0 mi SW 21.9 mph 28.8 mph N/A   Clear
11:55 AM 73.4 °F - 15.8 °F 11% 30.07 in 10.0 mi West 21.9 mph 31.1 mph N/A   Clear
12:15 PM 73.4 °F - 15.8 °F 11% 30.06 in 10.0 mi WSW 26.5 mph 32.2 mph N/A   Clear
12:35 PM 75.2 °F - 15.8 °F 11% 30.07 in 10.0 mi West 20.7 mph 29.9 mph N/A   Clear
12:55 PM 75.2 °F - 15.8 °F 11% 30.06 in 10.0 mi West 25.3 mph 34.5 mph N/A   Clear
1:15 PM 75.2 °F - 17.6 °F 11% 30.06 in 10.0 mi West 11.5 mph 27.6 mph N/A   Clear
1:35 PM 75.2 °F - 17.6 °F 11% 30.05 in 10.0 mi West 20.7 mph 31.1 mph N/A   Clear
1:55 PM 75.2 °F - 17.6 °F 11% 30.05 in 10.0 mi West 15.0 mph 28.8 mph N/A   Clear
2:15 PM 75.2 °F - 17.6 °F 11% 30.04 in 10.0 mi West 19.6 mph 27.6 mph N/A   Clear
2:35 PM 77.0 °F - 17.6 °F 11% 30.04 in 10.0 mi SW 23.0 mph 28.8 mph N/A   Clear
2:55 PM 78.8 °F - 17.6 °F 10% 30.04 in 10.0 mi West 19.6 mph 29.9 mph N/A   Clear
3:15 PM 78.8 °F - 19.4 °F 11% 30.03 in 10.0 mi WSW 24.2 mph 28.8 mph N/A   Clear
3:35 PM 78.8 °F - 17.6 °F 10% 30.03 in 10.0 mi West 17.3 mph 31.1 mph N/A   Clear
3:55 PM 78.8 °F - 17.6 °F 10% 30.03 in 10.0 mi West 20.7 mph 34.5 mph N/A   Clear
4:15 PM 77.0 °F - 17.6 °F 11% 30.02 in 10.0 mi WSW 15.0 mph 26.5 mph N/A   Clear
4:55 PM 78.8 °F - 17.6 °F 10% 30.01 in 10.0 mi West 20.7 mph 25.3 mph N/A   Clear
5:15 PM 77.0 °F - 17.6 °F 11% 30.01 in 10.0 mi WSW 17.3 mph 27.6 mph N/A   Clear
5:35 PM 77.0 °F - 17.6 °F 11% 30.01 in 10.0 mi West 23.0 mph 29.9 mph N/A   Clear
5:55 PM 77.0 °F - 17.6 °F 11% 30.01 in 10.0 mi West 19.6 mph 28.8 mph N/A   Clear
6:15 PM 75.2 °F - 17.6 °F 11% 30.01 in 10.0 mi West 19.6 mph 27.6 mph N/A   Clear
6:35 PM 75.2 °F - 15.8 °F 11% 30.01 in 10.0 mi West 17.3 mph 25.3 mph N/A   Clear
6:55 PM 75.2 °F - 15.8 °F 11% 30.01 in 10.0 mi West 17.3 mph 23.0 mph N/A   Clear
7:15 PM 73.4 °F - 15.8 °F 11% 30.02 in 10.0 mi West 18.4 mph - N/A   Clear
7:35 PM 71.6 °F - 14.0 °F 11% 30.03 in 10.0 mi West 17.3 mph - N/A   Clear
7:55 PM 68.0 °F - 10.4 °F 11% 30.03 in 10.0 mi WNW 11.5 mph - N/A   Clear
8:15 PM 64.4 °F - 8.6 °F 11% 30.04 in 10.0 mi WNW 9.2 mph - N/A   Clear
8:35 PM 60.8 °F - 8.6 °F 13% 30.05 in 10.0 mi WNW 9.2 mph - N/A   Clear
8:55 PM 57.2 °F - 6.8 °F 13% 30.05 in 10.0 mi WNW 8.1 mph - N/A   Clear
9:15 PM 57.2 °F - 8.6 °F 14% 30.06 in 10.0 mi NNW 4.6 mph - N/A   Clear
9:35 PM 55.4 °F - 8.6 °F 15% 30.07 in 10.0 mi North 5.8 mph - N/A   Clear
9:55 PM 53.6 °F - 8.6 °F 16% 30.07 in 10.0 mi North 5.8 mph - N/A   Clear
10:15 PM 51.8 °F - 8.6 °F 18% 30.08 in 10.0 mi North 5.8 mph - N/A   Clear
10:35 PM 48.2 °F - 10.4 °F 22% 30.08 in 10.0 mi ESE 6.9 mph - N/A   Clear
10:55 PM 48.2 °F - 10.4 °F 22% 30.09 in 10.0 mi East 5.8 mph - N/A   Clear
11:15 PM 53.6 °F - 10.4 °F 18% 30.09 in 10.0 mi East 3.5 mph - N/A   Clear
11:35 PM 60.8 °F - 10.4 °F 14% 30.09 in 10.0 mi West 6.9 mph - N/A   Clear